Temperature
14 14 13 13 12 12 11 11 11 11 11 11 11 11 11 11 11 11 11 11 11 11 11 11 10 10 10 10 10 9 9 9 9 9 9 9 9 9 9 9 9 10 10
14 14 13 12 12 11 11 11 11 11 11 11 11 11 11 10 10 10 10 10 10 10 10 10 10 10 10 9 9 9 9 8 8 8 8 8 8 9 9 9 9 9 9
14 13 12 12 11 11 10 10 10 10 10 10 10 10 10 10 10 10 10 10 10 10 10 10 9 9 9 9 9 8 8 8 8 7 7 7 7 8 8 8 8 8 8
14 13 12 11 11 10 10 10 10 10 10 10 10 10 10 10 10 9 9 9 9 9 9 9 9 9 8 8 8 8 7 7 7 7 7 7 7 7 7 7 7 7 8
13 12 11 11 10 10 9 9 9 9 9 9 9 9 9 9 9 9 9 9 9 9 8 8 8 8 8 8 8 7 7 7 6 6 6 6 6 6 6 6 6 7 7
12 11 11 10 9 9 9 9 9 9 9 9 9 9 9 8 8 8 8 8 8 8 8 8 8 8 8 7 7 7 7 7 6 6 6 5 5 5 5 5 6 6 6
11 10 10 9 9 9 9 9 8 8 8 8 8 8 8 8 8 8 8 8 8 8 8 8 7 7 7 7 7 7 6 6 6 6 5 5 5 5 5 5 5 5 5
10 9 9 8 8 8 8 8 8 8 8 8 8 8 8 8 8 8 7 7 8 8 7 7 7 7 7 7 6 6 6 6 5 5 5 5 5 5 5 5 5 4 5
9 8 8 8 8 8 8 7 7 7 7 7 7 7 7 7 7 7 7 7 7 7 7 7 7 7 6 6 6 6 5 5 5 5 5 5 5 5 5 4 4 4 4
8 8 7 7 7 7 7 7 7 7 7 7 7 7 7 7 7 7 7 7 7 7 6 6 6 6 6 6 6 5 5 5 5 5 5 5 5 4 4 4 4 4 4
7 7 7 7 7 7 7 7 7 7 6 6 7 7 6 6 6 6 6 6 6 6 6 6 6 6 6 5 5 5 5 5 5 4 4 4 4 4 4 4 4 4 4
7 7 6 6 6 6 6 6 6 6 6 6 6 6 6 6 6 6 6 6 6 6 6 5 5 5 5 5 4 4 4 4 4 4 4 4 4 4 4 4 4 4 4
6 6 6 6 6 5 5 5 5 5 5 5 5 5 5 5 5 5 5 5 5 5 5 5 5 5 4 4 4 4 3 3 3 3 3 3 3 3 3 3 3 3 3
5 5 5 5 5 5 5 5 5 5 5 5 5 5 5 5 5 5 5 5 5 5 5 5 4 4 4 4 4 3 3 3 3 3 3 3 3 3 3 3 3 3 3
5 4 4 4 4 4 4 4 4 4 4 4 4 4 4 4 4 4 4 4 4 4 4 4 4 4 4 3 3 3 3 3 3 3 3 3 3 3 3 3 3 2 2
4 4 4 4 4 4 3 4 4 4 4 4 4 4 4 4 4 4 4 4 4 4 3 3 3 3 3 3 3 3 3 3 2 2 3 2 2 2 2 2 2 2 2
3 3 3 3 3 3 3 3 3 3 3 3 3 3 3 3 3 3 3 3 3 3 3 3 3 3 3 2 2 2 2 2 2 2 2 2 2 2 2 2 2 2 2
2 2 2 2 2 2 3 3 3 3 3 3 2 2 2 2 2 2 2 2 2 2 2 2 2 2 2 2 2 2 2 2 2 1 1 1 1 1 1 1 1 1 1
2 2 2 2 2 2 2 2 2 2 2 2 2 1 2 2 2 2 1 1 1 1 1 1 1 1 2 1 1 1 1 1 1 1 1 1 1 1 1 1 1 1 1
1 1 1 1 1 1 1 1 1 1 1 1 1 1 1 1 1 1 1 1 1 1 1 1 1 1 1 1 1 1 0 0 0 0 0 0 0 0 0 1 1 1 1
0 1 1 0 0 0 1 1 1 1 0 0 0 0 0 0 0 0 0 0 0 0 0 0 0 0 0 0 0 0 -0 -0 -0 -0 -0 -0 -0 -0 0 0 0 0 0
-0 -0 -0 -0 -0 -0 -0 -0 -0 -0 -0 -0 -0 0 0 0 0 -0 -0 -0 -0 -0 -0 -0 -0 -0 -1 -1 -1 -1 -1 -1 -1 -1 -1 -1 -1 -0 -0 -0 -0 -0 0
-1 -1 -1 -1 -1 -1 -1 -1 -1 -1 -1 -1 -0 -0 -0 -0 -0 -0 -1 -1 -1 -1 -1 -1 -1 -1 -1 -1 -1 -1 -1 -1 -1 -1 -1 -1 -1 -1 -1 -1 -0 -0 -0
-1 -1 -1 -1 -1 -1 -1 -1 -1 -1 -1 -1 -1 -1 -1 -1 -1 -1 -1 -1 -1 -2 -2 -2 -2 -2 -2 -2 -2 -2 -2 -2 -1 -1 -1 -1 -1 -1 -1 -1 -1 -1 -1
-2 -2 -2 -2 -2 -2 -2 -2 -2 -2 -2 -2 -2 -2 -2 -2 -2 -2 -2 -2 -2 -2 -2 -2 -2 -3 -3 -3 -3 -2 -2 -2 -2 -2 -1 -1 -1 -1 -1 -1 -1 -1 -1
-2 -2 -2 -3 -2 -3 -2 -2 -2 -2 -2 -2 -2 -2 -2 -2 -2 -2 -3 -3 -3 -3 -3 -3 -3 -3 -3 -3 -3 -2 -2 -2 -2 -2 -2 -2 -2 -2 -2 -2 -2 -2 -2
Wind_Speed
8 8 8 7 7 6 6 6 5 5 4 3 3 3 3 2 2 2 3 3 3 3 2 2 1 1 1 2 2 2 3 3 2 3 5 5 5 5 4 4 4 5 6
7 8 7 7 6 6 6 6 5 4 4 4 3 3 3 3 2 2 3 4 4 4 3 3 2 2 2 2 2 2 2 3 1 1 3 3 4 4 5 5 5 6 5
7 8 7 6 6 5 6 5 4 4 4 4 3 2 1 1 1 2 3 3 4 4 3 3 3 3 3 3 3 3 3 3 3 2 2 2 3 4 4 5 5 5 5
6 6 7 6 6 5 4 5 4 4 4 4 4 4 3 3 4 3 3 3 4 4 4 4 4 3 3 3 4 3 3 3 3 3 3 4 4 4 4 4 4 6 6
5 6 6 5 5 4 4 4 4 3 3 3 4 4 3 3 2 2 3 3 3 4 4 4 3 4 3 4 4 4 4 3 4 4 4 5 4 5 5 8 6 5 5
5 5 5 5 4 4 4 4 4 3 4 4 4 4 4 4 3 3 4 3 3 3 4 4 4 4 4 4 4 5 5 5 5 5 4 4 4 5 5 7 8 7 5
5 5 5 5 4 4 3 3 3 3 3 4 3 4 4 4 5 4 4 3 3 3 4 4 3 3 4 4 4 4 5 5 6 6 5 5 6 5 5 7 8 8 7
5 5 4 4 4 4 3 3 3 3 3 3 3 3 3 3 3 3 3 3 3 4 3 3 3 4 4 4 4 4 5 5 5 7 6 6 6 6 6 6 7 9 8
5 4 4 4 4 3 2 3 2 2 2 2 2 2 2 2 2 2 2 2 2 3 3 3 4 4 4 4 5 4 5 5 6 6 7 6 6 6 6 5 6 7 9
5 4 3 3 3 3 2 2 2 1 1 1 1 1 1 1 2 2 2 2 3 3 3 3 4 4 4 4 5 4 5 5 6 5 7 7 6 5 5 5 6 6 8
4 4 3 3 3 3 3 2 2 1 1 0 0 0 1 1 1 2 2 3 3 3 3 3 3 4 4 4 4 5 5 6 6 6 7 8 7 6 5 5 5 6 6
5 4 3 3 3 3 3 2 2 1 1 1 1 1 1 0 1 2 2 2 2 2 3 3 3 4 4 4 4 5 5 6 7 7 7 7 6 7 6 5 6 6 6
4 4 4 4 4 3 3 2 2 2 1 1 1 1 1 1 1 1 2 2 1 2 2 2 2 3 3 4 4 5 6 6 6 6 7 7 7 7 6 6 6 6 7
4 4 4 4 4 3 3 3 2 2 2 1 1 1 1 1 1 1 2 1 1 2 2 2 3 3 4 4 5 5 5 5 6 6 6 7 7 7 7 7 7 6 6
4 5 4 4 4 5 4 3 3 3 2 2 1 1 2 1 1 2 2 1 1 3 2 2 3 3 4 4 5 5 5 5 5 6 6 7 7 9 8 7 6 6 6
4 4 4 4 5 5 4 3 3 3 3 2 2 2 2 2 2 2 2 2 2 2 2 3 3 4 5 7 8 7 5 5 5 6 6 6 7 9 10 11 10 8 7
3 3 3 4 4 4 4 4 3 3 2 2 2 2 2 2 2 2 2 2 3 3 3 3 3 4 5 8 9 9 6 5 5 5 5 6 7 8 7 8 8 8 10
4 3 3 3 3 4 4 4 3 3 3 3 3 3 2 3 3 2 2 3 3 3 3 4 4 3 5 8 9 9 6 4 4 5 6 6 6 7 6 5 5 5 6
3 3 3 3 3 4 4 4 4 3 3 3 3 3 2 2 2 2 3 3 3 3 3 3 3 3 4 7 8 8 4 3 5 5 5 6 6 8 8 6 5 5 5
3 3 3 4 4 4 4 4 4 4 4 4 3 3 3 2 2 2 3 3 3 3 3 4 4 4 4 6 7 7 3 4 4 4 5 7 7 8 7 4 4 4 4
4 4 3 3 3 4 4 4 4 4 4 4 4 4 3 2 3 3 3 2 2 3 3 4 4 3 3 5 7 7 4 4 4 4 4 4 8 8 7 5 3 4 4
3 3 3 3 3 4 4 4 4 4 4 4 4 4 4 3 3 2 3 3 2 3 3 3 4 3 3 4 5 7 7 6 4 4 4 4 7 8 7 5 5 5 4
2 3 2 3 3 3 3 3 4 5 5 5 5 4 4 3 3 2 2 3 2 2 3 3 3 4 4 4 6 7 7 7 4 3 5 6 8 7 5 5 6 4 2
3 3 3 2 3 3 3 3 4 4 4 4 5 4 4 4 4 3 2 2 2 2 3 3 4 4 4 4 4 4 4 5 5 4 5 6 6 5 5 5 4 2 2
3 3 3 3 3 3 3 3 4 4 4 4 4 4 4 4 4 3 3 3 2 2 3 3 3 4 4 5 6 5 4 4 4 4 3 3 3 3 3 3 2 2 2
3 3 3 3 3 3 3 3 3 4 4 4 4 4 4 4 3 3 4 6 5 6 6 6 5 5 6 8 8 8 7 7 6 4 3 2 2 2 2 2 2 2 2
Wind_Direction
180 165 157 154 153 153 155 158 159 166 160 160 166 174 189 197 195 186 184 201 206 205 193 206 235 226 226 243 257 274 286 296 304 310 302 288 269 261 256 258 262 260 260
178 164 155 153 158 157 156 159 166 174 170 170 175 183 190 197 194 190 192 208 211 208 209 197 220 230 229 246 255 267 280 293 292 296 308 297 292 274 272 271 263 263 262
178 163 156 155 153 154 159 171 174 178 174 167 162 168 154 191 198 207 210 213 215 209 205 205 217 226 221 234 240 235 248 273 273 257 244 268 266 296 262 263 266 269 271
162 155 153 153 154 154 154 163 173 178 178 169 171 176 194 213 220 207 209 216 215 208 207 210 218 228 227 237 246 248 244 248 263 267 254 253 271 286 295 274 264 272 274
146 146 145 146 144 142 151 162 167 173 174 178 184 190 206 221 224 213 210 224 226 206 204 209 215 230 231 235 245 250 245 243 248 254 265 270 275 266 271 286 284 273 263
126 128 128 127 128 129 141 150 163 181 182 188 194 197 209 218 220 231 222 223 227 223 212 214 216 224 229 233 244 245 243 245 248 251 251 254 260 263 263 274 283 283 278
120 127 125 134 137 142 147 161 173 185 188 192 196 206 214 218 223 227 226 227 228 232 226 230 228 230 231 240 246 248 247 247 247 247 251 253 255 258 262 270 280 285 285
109 107 119 129 140 147 158 171 178 186 189 196 208 218 216 215 228 230 232 235 231 226 222 231 233 240 238 248 247 249 251 255 252 253 251 255 257 256 257 260 273 284 286
106 101 97 113 132 141 147 149 159 173 180 193 214 231 230 225 230 235 238 251 244 239 230 233 235 237 239 242 245 246 247 250 251 250 251 254 257 256 257 256 255 262 279
101 98 92 98 119 135 135 134 141 151 161 170 217 255 262 250 233 234 244 259 252 244 244 250 242 241 244 245 249 252 255 256 258 255 255 256 259 259 256 253 258 255 261
101 94 92 93 105 103 105 100 97 92 80 55 59 24 283 257 251 244 247 266 258 245 244 251 253 250 253 254 257 262 263 262 266 263 261 263 262 262 261 258 259 263 260
88 89 89 78 76 82 80 75 72 70 62 60 68 58 6 341 282 269 270 277 270 267 263 262 259 261 266 262 261 267 269 267 270 271 270 269 270 265 264 261 259 262 260
74 72 68 69 63 62 61 50 49 43 34 50 60 38 350 329 284 277 305 298 297 297 290 276 265 269 273 273 269 266 269 270 274 275 274 272 269 268 265 264 262 262 266
67 57 44 43 45 48 52 46 33 25 23 29 26 7 323 307 295 295 292 287 299 289 278 273 267 269 275 278 275 273 274 275 275 276 276 274 268 267 265 266 263 262 264
62 51 39 27 27 33 35 34 25 19 13 12 356 336 330 332 327 306 293 295 295 289 284 281 278 276 277 278 282 281 280 277 277 278 276 276 275 274 273 271 268 264 264
58 45 33 21 22 22 18 16 9 2 360 352 336 338 342 337 322 316 324 322 310 305 299 289 285 285 286 292 297 297 286 279 278 281 281 281 280 277 278 276 276 271 266
62 44 24 18 16 13 12 4 349 348 354 348 344 346 351 349 338 334 342 327 315 312 308 303 299 291 288 296 299 302 295 284 286 286 285 288 288 288 280 283 283 280 273
51 38 25 12 10 11 9 5 358 3 10 3 353 351 359 347 339 339 326 313 308 305 307 308 305 296 298 308 308 307 304 296 290 287 286 285 286 284 284 287 289 287 282
51 35 20 12 14 15 8 7 7 15 15 4 351 343 339 325 321 317 309 310 313 316 316 313 317 311 310 317 318 316 307 301 297 295 296 292 288 291 296 292 287 292 296
38 31 20 17 17 11 10 10 5 12 3 347 335 329 325 316 307 299 299 303 308 310 313 315 315 311 311 319 325 321 311 306 305 305 304 305 304 305 308 300 289 288 293
27 26 24 23 9 4 10 4 4 3 348 341 333 329 324 317 312 309 307 308 315 318 315 312 316 321 323 326 328 328 322 308 304 304 309 314 323 323 321 314 296 284 290
25 20 20 17 8 11 13 5 0 349 347 343 333 328 327 321 322 320 317 318 317 317 317 325 328 330 330 331 333 333 326 319 309 305 307 314 325 327 329 327 319 315 314
21 14 13 12 8 10 15 359 342 342 346 340 333 333 336 335 327 318 317 323 324 319 319 325 322 323 329 331 331 327 326 325 318 310 317 321 326 328 332 339 334 334 338
11 7 8 1 352 1 8 349 335 339 341 335 333 336 336 336 337 336 334 331 330 324 316 313 311 313 317 319 320 317 319 324 321 319 324 328 332 337 332 335 342 354 352
356 358 353 346 340 349 351 344 340 340 335 329 326 329 331 332 334 340 343 331 325 305 306 305 303 305 305 309 316 314 313 310 303 311 316 322 330 344 345 346 349 350 347
349 343 343 340 335 338 335 334 332 329 327 323 325 325 324 324 326 334 340 347 335 332 326 317 307 305 300 306 312 313 312 310 305 314 317 317 328 336 337 340 347 350 347
Height
1455 1458 1460 1463 1466 1468 1470 1471 1474 1476 1478 1479 1481 1483 1485 1486 1487 1488 1489 1490 1490 1491 1491 1491 1492 1492 1492 1492 1492 1492 1492 1492 1491 1490 1488 1487 1487 1486 1486 1486 1486 1485 1485
1451 1454 1457 1459 1461 1464 1466 1468 1470 1472 1474 1476 1478 1480 1481 1483 1484 1485 1486 1486 1487 1487 1487 1488 1488 1488 1488 1488 1489 1489 1488 1488 1488 1488 1485 1483 1482 1481 1481 1481 1480 1480 1480
1447 1450 1453 1455 1458 1460 1462 1463 1466 1468 1470 1472 1474 1476 1478 1479 1480 1480 1481 1482 1483 1483 1484 1484 1484 1484 1484 1484 1485 1485 1484 1484 1484 1485 1485 1482 1478 1476 1475 1475 1475 1475 1475
1444 1446 1449 1452 1454 1456 1458 1460 1462 1464 1466 1468 1470 1471 1472 1474 1475 1476 1477 1478 1479 1479 1480 1480 1480 1480 1480 1481 1481 1481 1481 1480 1479 1480 1481 1481 1478 1476 1470 1469 1470 1470 1469
1440 1443 1446 1448 1451 1453 1455 1457 1458 1460 1462 1464 1466 1467 1469 1470 1471 1472 1473 1474 1474 1475 1475 1475 1476 1476 1476 1476 1476 1477 1476 1476 1476 1475 1475 1475 1475 1473 1471 1465 1463 1464 1464
1438 1441 1443 1446 1448 1450 1452 1453 1455 1457 1458 1460 1462 1463 1464 1466 1467 1468 1468 1469 1470 1470 1471 1471 1471 1472 1472 1471 1471 1472 1472 1471 1471 1471 1470 1470 1470 1468 1467 1463 1460 1458 1457
1436 1439 1441 1443 1445 1447 1448 1450 1452 1453 1455 1456 1458 1459 1460 1462 1462 1463 1464 1465 1465 1466 1466 1467 1467 1467 1467 1467 1467 1467 1467 1466 1466 1466 1465 1465 1465 1464 1463 1461 1457 1453 1451
1436 1438 1439 1441 1443 1444 1446 1448 1449 1450 1452 1453 1454 1455 1456 1457 1458 1459 1460 1461 1461 1461 1462 1463 1463 1463 1463 1463 1462 1462 1461 1461 1461 1460 1460 1459 1459 1459 1458 1457 1454 1449 1445
1435 1437 1439 1440 1442 1443 1444 1446 1447 1448 1449 1450 1451 1452 1453 1453 1454 1455 1456 1456 1457 1457 1457 1458 1458 1458 1458 1457 1457 1456 1456 1456 1455 1455 1454 1454 1453 1453 1452 1451 1451 1449 1442
1436 1437 1438 1440 1441 1442 1443 1444 1445 1446 1447 1448 1449 1449 1450 1450 1450 1451 1451 1452 1452 1452 1453 1453 1453 1453 1453 1452 1452 1451 1451 1451 1450 1449 1449 1448 1447 1447 1446 1445 1445 1443 1440
1435 1437 1438 1439 1440 1441 1442 1443 1444 1445 1445 1446 1446 1446 1447 1447 1447 1447 1448 1448 1448 1448 1448 1448 1448 1448 1448 1447 1447 1446 1446 1445 1444 1444 1443 1442 1441 1440 1440 1439 1438 1437 1435
1436 1437 1438 1439 1439 1440 1441 1441 1442 1443 1443 1444 1444 1444 1444 1444 1444 1444 1444 1445 1444 1444 1444 1444 1444 1443 1443 1442 1442 1441 1441 1440 1439 1438 1437 1436 1436 1434 1433 1433 1431 1430 1429
1436 1437 1438 1438 1439 1439 1440 1440 1441 1441 1442 1441 1441 1441 1441 1441 1441 1441 1441 1441 1440 1440 1440 1439 1439 1438 1438 1437 1437 1436 1435 1434 1434 1433 1431 1430 1430 1428 1427 1426 1425 1424 1422
1437 1438 1438 1438 1438 1439 1439 1439 1440 1440 1440 1439 1439 1438 1438 1438 1437 1437 1437 1436 1436 1435 1435 1434 1434 1434 1433 1432 1432 1431 1430 1429 1428 1427 1426 1425 1424 1423 1422 1420 1419 1418 1416
1437 1438 1438 1438 1438 1438 1438 1438 1438 1438 1437 1437 1436 1436 1435 1435 1435 1434 1433 1433 1432 1432 1431 1430 1430 1429 1429 1428 1427 1426 1425 1424 1422 1421 1421 1420 1419 1417 1417 1415 1413 1412 1411
1437 1438 1438 1438 1437 1437 1437 1436 1436 1436 1435 1435 1434 1434 1433 1432 1432 1431 1430 1430 1429 1428 1428 1427 1426 1425 1424 1424 1423 1422 1420 1419 1417 1416 1415 1414 1413 1412 1411 1410 1408 1408 1406
1437 1437 1437 1437 1437 1436 1435 1434 1434 1433 1433 1432 1432 1431 1430 1430 1429 1428 1427 1427 1426 1425 1424 1423 1422 1421 1420 1420 1419 1418 1416 1414 1413 1411 1410 1408 1407 1406 1406 1404 1403 1402 1401
1436 1436 1436 1436 1435 1435 1434 1433 1432 1431 1430 1430 1430 1429 1428 1427 1426 1426 1425 1424 1423 1422 1421 1419 1418 1417 1416 1416 1415 1413 1412 1410 1408 1407 1406 1404 1402 1401 1401 1399 1397 1395 1395
1436 1436 1436 1435 1434 1433 1432 1432 1430 1429 1428 1428 1427 1427 1426 1425 1424 1423 1422 1421 1420 1419 1418 1416 1415 1414 1412 1412 1411 1409 1408 1406 1404 1403 1401 1400 1398 1397 1396 1394 1392 1391 1390
1435 1434 1434 1434 1433 1432 1431 1430 1429 1428 1427 1426 1425 1424 1423 1422 1421 1420 1420 1419 1418 1416 1415 1413 1412 1411 1409 1408 1407 1406 1404 1402 1400 1398 1397 1396 1394 1393 1392 1390 1388 1386 1385
1433 1433 1433 1432 1431 1431 1429 1428 1427 1426 1425 1424 1423 1422 1421 1420 1419 1418 1417 1416 1415 1413 1412 1410 1409 1407 1406 1404 1403 1402 1401 1399 1397 1395 1393 1392 1391 1389 1387 1386 1384 1383 1383
1432 1431 1431 1430 1430 1429 1427 1426 1425 1424 1423 1422 1421 1420 1419 1418 1417 1416 1415 1414 1412 1410 1409 1407 1405 1404 1403 1402 1400 1399 1398 1396 1394 1392 1390 1389 1388 1386 1385 1383 1381 1380 1380
1430 1429 1429 1428 1428 1427 1426 1424 1423 1422 1421 1420 1418 1417 1416 1415 1414 1413 1412 1411 1410 1408 1406 1404 1402 1401 1400 1398 1397 1396 1395 1393 1391 1390 1388 1387 1385 1384 1382 1381 1379 1378 1377
1428 1427 1427 1426 1425 1425 1424 1422 1421 1420 1419 1417 1416 1415 1414 1412 1412 1411 1410 1409 1407 1405 1404 1402 1400 1398 1397 1395 1394 1393 1391 1390 1388 1387 1386 1384 1383 1381 1380 1379 1377 1376 1375
1426 1426 1425 1424 1423 1422 1421 1420 1419 1418 1417 1415 1414 1413 1412 1410 1409 1408 1407 1406 1405 1404 1402 1400 1398 1396 1393 1393 1392 1390 1388 1387 1386 1385 1383 1382 1380 1379 1378 1377 1376 1375 1374
1424 1423 1422 1421 1420 1420 1418 1418 1417 1416 1414 1413 1412 1411 1409 1408 1406 1405 1404 1403 1402 1400 1399 1397 1396 1394 1392 1390 1389 1387 1385 1384 1383 1382 1381 1379 1378 1377 1376 1376 1374 1374 1373